Overview Statistics Trail Chart Weather Telemetry Raw packets
 

This is the latest recevied weather packets stored in our database for station/object JE6MIQ-13. If no packets are shown the sender has not sent any weather packets the latest 10 day(s).

<< 1 2 3 4 5 >>
Time Temp. Humidity Pressure Rain* Wind** Luminosity Snow
1788595476 28.33° C 25% 1003.3 hPa 0 mm - - -
1788594604 28.33° C 25% 1003.4 hPa 0 mm - - -
1788593678 28.33° C 25% 1003.2 hPa 0 mm - - -
1788592776 28.33° C 25% 1003.4 hPa 0 mm - - -
1788591877 28.89° C 25% 1003.2 hPa 0 mm - - -
1788590978 29.44° C 25% 1003.5 hPa 0 mm - - -
1788590077 29.44° C 25% 1003.3 hPa 0 mm - - -
1788589178 29.44° C 25% 1003.3 hPa 0 mm - - -
1788588277 28.89° C 25% 1003.5 hPa 0 mm - - -
1788587376 28.89° C 25% 1003.6 hPa 0 mm - - -
1788586477 29.44° C 25% 1003.7 hPa 0 mm - - -
1788585581 28.89° C 25% 1003.9 hPa 0 mm - - -
1788584677 29.44° C 25% 1003.8 hPa 0 mm - - -
1788583778 29.44° C 25% 1003.9 hPa 0 mm - - -
1788582878 29.44° C 25% 1003.7 hPa 0 mm - - -
1788581977 29.44° C 25% 1003.8 hPa 0 mm - - -
1788581077 30.56° C 25% 1003.9 hPa 0 mm - - -
1788580177 30.56° C 25% 1003.7 hPa 0 mm - - -
1788579278 30.56° C 25% 1003.8 hPa 0 mm - - -
1788578378 30.56° C 25% 1003.9 hPa 0 mm - - -
1788577477 31.11° C 25% 1004 hPa 0 mm - - -
1788576577 31.11° C 25% 1004.1 hPa 0 mm - - -
1788575677 30° C 25% 1004 hPa 0 mm - - -
1788574776 30° C 25% 1004.5 hPa 0 mm - - -
1788573876 30° C 25% 1004.8 hPa 0 mm - - -

* Rain latest hour (hover to see other rain measurements)
** Current wind speed in m/s (hover to see current wind gust speed)